Location: Mapua
(41.2500°S, 173.1000°E)
Time: 13:59:41
(UTC+12:00)

Amateur Radio Satellites - All Passes

Search period start: 25 June 2017 13:29
Search period end: 26 June 2017 13:29
Location: Mapua, 41.2500°S, 173.1000°E

Satellite Date Start Highest point End Downlink Frequencies (MHz)
Time Altitude Azimuth
BUGSAT 1 25 Jun 13:30:47 13:34:52 71° 255° (WSW) 13:38:54 437.445
BEESAT 25 Jun 13:34:11 13:37:33 19° 116° (ESE) 13:40:56 436.000
EO-79 25 Jun 13:38:01 13:40:39 16° 245° (WSW) 13:43:16 145.935-145.965
DX 1 25 Jun 13:47:54 13:51:21 22° 274° (W) 13:54:50 434.975-435.025
DUCHIFAT 1 25 Jun 13:53:39 13:55:47 14° 243° (WSW) 13:57:55 145.980
NANOSAT C BR1 25 Jun 14:03:09 14:03:37 10° 241° (WSW) 14:04:06 145.865
UKube-1 25 Jun 14:07:19 14:10:32 20° 274° (W) 14:13:48 .
Oscar 19 25 Jun 14:13:50 14:19:08 82° 255° (WSW) 14:24:22 437.125/150
AO-7 25 Jun 14:40:25 14:46:10 20° 89° (E) 14:51:53 .
MOZHAYETS 4 25 Jun 14:49:20 14:53:52 64° 106° (ESE) 14:58:28
ITAMSAT 1 25 Jun 14:50:31 14:53:55 17° 88° (E) 14:57:18 435.822/435.867
KKS-1 25 Jun 14:57:17 14:58:15 11° 120° (ESE) 14:59:15 437.445
ITUPSAT 1 25 Jun 14:59:30 15:04:14 64° 282° (WNW) 15:09:03 437.325
Gurwin Techsat 1B 25 Jun 14:59:45 15:04:57 52° 251° (WSW) 15:10:07 435.225
RS-15 25 Jun 15:09:54 15:18:28 25° 159° (SSE) 15:27:12 29.354- 29.394
BEESAT 25 Jun 15:10:19 15:14:56 48° 280° (W) 15:19:37 436.000
CUBESAT XI-V 25 Jun 15:28:13 15:32:20 31° 111° (ESE) 15:36:32 437.345
AO-85 25 Jun 15:41:20 15:44:29 16° 144° (SE) 15:47:30 145.980
Oscar 19 25 Jun 15:55:57 15:57:34 11° 237° (WSW) 15:59:11 437.125/150
BEESAT 3 25 Jun 16:16:38 16:17:26 11° 141° (SE) 16:18:15 437.485
NO-84 25 Jun 16:24:17 16:27:00 33° 145° (SE) 16:29:46 435.350 FM
ITAMSAT 1 25 Jun 16:28:36 16:33:45 58° 252° (WSW) 16:38:50 435.822/435.867
MOZHAYETS 4 25 Jun 16:29:30 16:31:27 12° 270° (W) 16:33:25
KKS-1 25 Jun 16:29:34 16:34:06 85° 283° (WNW) 16:38:41 437.445
AO-7 25 Jun 16:31:26 16:39:50 84° 251° (WSW) 16:48:09 .
STARS 25 Jun 17:01:49 17:06:16 89° 302° (WNW) 17:10:46 437.465
CUBESAT XI-V 25 Jun 17:05:43 17:09:41 27° 275° (W) 17:13:43 437.345
BEESAT 2 25 Jun 17:12:32 17:14:37 14° 138° (SE) 17:16:42 435.950
AO-85 25 Jun 17:20:39 17:25:54 77° 123° (ESE) 17:30:45 145.980
RS-15 25 Jun 17:22:41 17:33:41 62° 129° (SE) 17:45:07 29.354- 29.394
STRAND 1 25 Jun 17:22:53 17:23:37 10° 123° (ESE) 17:24:22 437.568
XW-2C 25 Jun 17:27:15 17:28:02 10° 90° (E) 17:28:48 145.795 - 145.815
CUTE-I 25 Jun 17:27:59 17:30:16 13° 91° (E) 17:32:30 437.470
KAITUO 1B 25 Jun 17:42:39 17:44:23 13° 89° (E) 17:46:05 145.475/437.950
BEESAT 3 25 Jun 17:51:46 17:55:37 84° 122° (ESE) 17:59:28 437.485
NO-84 25 Jun 18:02:07 18:04:17 18° 309° (NW) 18:06:28 435.350 FM
DOVE 4 25 Jun 18:06:30 18:11:10 75° 78° (ENE) 18:15:30 437.250
NUDT-PHONESAT 25 Jun 18:18:06 18:21:35 32° 83° (E) 18:25:01 437.300
O/OREOS (USA 219) 25 Jun 18:24:27 18:28:11 23° 123° (ESE) 18:31:52 437.305
AO-7 25 Jun 18:25:47 18:31:25 21° 230° (SW) 18:37:01 .
XW-2F 25 Jun 18:30:49 18:34:42 62° 79° (E) 18:38:32 145.980 - 146.000
XW-2D 25 Jun 18:34:13 18:38:08 74° 79° (ENE) 18:42:01 145.860 - 145.880
LilacSat-2 25 Jun 18:41:29 18:45:27 87° 257° (WSW) 18:49:21 437.200
XW-2B 25 Jun 18:43:11 18:47:07 88° 262° (W) 18:51:01 145.730 - 145.750
BEESAT 2 25 Jun 18:48:56 18:52:47 67° 300° (WNW) 18:56:37 435.950
STRAND 1 25 Jun 18:56:45 19:01:53 77° 106° (ESE) 19:07:05 437.568
XW-2C 25 Jun 18:58:43 19:02:33 55° 254° (WSW) 19:06:21 145.795 - 145.815
SEEDS 25 Jun 19:01:06 19:03:19 14° 90° (E) 19:05:30 437.485
AO-85 25 Jun 19:03:12 19:05:34 13° 285° (WNW) 19:07:53 145.980
CUTE-I 25 Jun 19:05:31 19:10:55 80° 255° (WSW) 19:16:15 437.470
Tancredo 1 25 Jun 19:09:32 19:11:24 15° 48° (NE) 19:13:17 437.200
KAITUO 1B 25 Jun 19:14:54 19:18:37 45° 254° (WSW) 19:22:17 145.475/437.950
CUTE 1.7 + AOD 2 25 Jun 19:15:41 19:19:36 31° 84° (E) 19:23:28 437.475
CUBEBUG 2 25 Jun 19:19:58 19:22:46 17° 87° (E) 19:25:35 437.445
XW-2A 25 Jun 19:20:29 19:23:13 22° 85° (E) 19:25:57 145.665 - 145.685
ISS 25 Jun 19:21:19 19:21:47 10° 52° (NE) 19:22:15 437.550
HO-68 25 Jun 19:22:40 19:29:32 43° 81° (E) 19:36:19 435.675
RS-15 25 Jun 19:35:34 19:45:34 40° 288° (WNW) 19:56:01 29.354- 29.394
YUBILEINY 25 Jun 19:35:49 19:42:39 24° 115° (ESE) 19:49:25 435.215
DOVE 4 25 Jun 19:46:32 19:48:06 12° 240° (WSW) 19:49:37 437.250
ZACube-1 25 Jun 19:52:23 19:54:23 13° 89° (E) 19:56:22 437.345
NUDT-PHONESAT 25 Jun 19:52:39 19:55:13 17° 247° (WSW) 19:57:46 437.300
AAUSAT CUBESAT 2 25 Jun 19:53:18 19:56:47 24° 86° (E) 20:00:12 437.432
UWE-3 25 Jun 19:54:34 19:58:06 24° 85° (E) 20:01:40 435.000/436.395/437.385
O/OREOS (USA 219) 25 Jun 20:03:22 20:07:43 39° 285° (WNW) 20:12:01 437.305
XW-2F 25 Jun 20:07:26 20:08:16 11° 243° (WSW) 20:09:08 145.980 - 146.000
FO-29 25 Jun 20:12:00 20:17:19 25° 116° (ESE) 20:22:12 435.910
M-CUBED/EXP-1 PRIME 25 Jun 20:30:31 20:34:59 52° 113° (ESE) 20:39:36 437.505
SEEDS 25 Jun 20:35:04 20:39:18 52° 254° (WSW) 20:43:28 437.485
STRAND 1 25 Jun 20:39:32 20:41:38 12° 269° (W) 20:43:44 437.568
TIGRISAT 25 Jun 20:41:30 20:44:39 20° 114° (ESE) 20:47:46 435.000
Tancredo 1 25 Jun 20:43:41 20:46:41 54° 212° (SSW) 20:49:44 437.200
PRISM 25 Jun 20:45:15 20:48:39 24° 113° (ESE) 20:52:05 437.425
CUTE-I 25 Jun 20:48:27 20:50:03 11° 237° (WSW) 20:51:39 437.470
CUTE 1.7 + AOD 2 25 Jun 20:51:47 20:55:15 23° 248° (WSW) 20:58:42 437.475
AO-73 25 Jun 20:52:01 20:56:17 53° 80° (E) 21:00:35 145.935
XW-2A 25 Jun 20:53:14 20:55:51 20° 249° (WSW) 20:58:26 145.665 - 145.685
ISS 25 Jun 20:54:26 20:57:46 90° 233° (SW) 21:01:07 437.550
CUBEBUG 2 25 Jun 20:55:33 20:59:34 41° 252° (WSW) 21:03:36 437.445
HO-68 25 Jun 21:10:35 21:17:06 38° 243° (WSW) 21:23:37 435.675
Oscar 11 25 Jun 21:20:03 21:24:30 85° 78° (ENE) 21:28:54 .
UNISAT 6 25 Jun 21:22:03 21:26:22 57° 107° (ESE) 21:30:39 437.425
DELFI C3 25 Jun 21:26:02 21:29:24 24° 85° (E) 21:32:42 145.870
ZACube-1 25 Jun 21:26:43 21:30:58 56° 254° (WSW) 21:35:15 437.345
AAUSAT CUBESAT 2 25 Jun 21:28:31 21:32:11 29° 249° (WSW) 21:35:49 437.432
UWE-3 25 Jun 21:30:49 21:34:32 29° 250° (WSW) 21:38:18 435.000/436.395/437.385
YUBILEINY 25 Jun 21:31:34 21:40:20 75° 274° (W) 21:49:03 435.215
FO-29 25 Jun 21:55:03 22:02:01 60° 282° (WNW) 22:08:15 435.910
M-CUBED/EXP-1 PRIME 25 Jun 22:06:32 22:09:39 18° 276° (W) 22:12:49 437.505
TIGRISAT 25 Jun 22:16:58 22:21:04 38° 278° (W) 22:25:09 435.000
POLYITAN 1 25 Jun 22:19:26 22:21:54 15° 116° (ESE) 22:24:23 437.675
PRISM 25 Jun 22:20:07 22:23:47 29° 277° (W) 22:27:30 437.425
Tancredo 1 25 Jun 22:20:53 22:22:49 15° 193° (SSW) 22:24:44 437.200
QB50P2 25 Jun 22:29:22 22:32:34 21° 113° (ESE) 22:35:48 145.880/145.840
AO-73 25 Jun 22:29:39 22:32:05 15° 245° (WSW) 22:34:32 145.935
ISS 25 Jun 22:32:04 22:34:38 20° 198° (SSW) 22:37:13 437.550
EO-88 25 Jun 22:33:34 22:37:19 73° 255° (WSW) 22:41:01 145.990 - 145.960
EO-79 25 Jun 22:53:19 22:57:10 34° 110° (ESE) 23:01:03 145.935-145.965
LO-87 25 Jun 22:58:39 23:01:42 25° 84° (E) 23:04:43 145.935 - 145.965
DELFI C3 25 Jun 23:00:42 23:04:05 26° 249° (WSW) 23:07:25 145.870
UNISAT 6 25 Jun 23:01:26 23:03:24 13° 271° (W) 23:05:23 437.425
AIST 2D 25 Jun 23:07:18 23:10:47 73° 281° (WNW) 23:14:22 435.315
DUCHIFAT 1 25 Jun 23:07:52 23:11:49 39° 109° (ESE) 23:15:47 145.980
PCSat 25 Jun 23:13:30 23:18:04 28° 71° (ENE) 23:22:40 145.827
NANOSAT C BR1 25 Jun 23:15:51 23:20:00 55° 106° (ESE) 23:24:11 145.865
YUBILEINY 25 Jun 23:31:45 23:35:29 13° 254° (WSW) 23:39:13 435.215
ESTCUBE 1 25 Jun 23:33:41 23:38:04 41° 82° (E) 23:42:23 437.505/2401.250
VELOX 1 25 Jun 23:40:26 23:41:22 11° 91° (E) 23:42:17 145.980
POLYITAN 1 25 Jun 23:53:08 23:57:16 49° 279° (W) 00:01:25 437.675
Oscar 19 25 Jun 23:53:18 23:56:54 19° 118° (ESE) 00:00:32 437.125/150
Tancredo 1 25 Jun 23:57:52 23:59:23 13° 173° (S) 00:00:54 437.200
SPROUT 26 Jun 00:03:16 00:06:36 21° 86° (E) 00:09:52 437.525
QB50P2 26 Jun 00:04:15 00:08:08 34° 277° (W) 00:12:03 145.880/145.840
ISS 26 Jun 00:10:14 00:12:05 14° 178° (S) 00:13:56 437.550
BUGSAT 1 26 Jun 00:19:48 00:23:57 77° 105° (ESE) 00:28:07 437.445
50 SAT 26 Jun 00:24:27 00:26:00 12° 88° (E) 00:27:31 437.505
EO-79 26 Jun 00:29:49 00:33:00 20° 274° (W) 00:36:12 145.935-145.965
LO-87 26 Jun 00:32:20 00:34:58 19° 248° (WSW) 00:37:35 145.935 - 145.965
Gurwin Techsat 1B 26 Jun 00:41:31 00:46:14 33° 113° (ESE) 00:51:01 435.225
DUCHIFAT 1 26 Jun 00:44:48 00:47:37 17° 273° (W) 00:50:28 145.980
NANOSAT C BR1 26 Jun 00:54:12 00:56:02 13° 271° (W) 00:57:53 145.865
PCSat 26 Jun 00:56:08 01:01:15 42° 234° (SW) 01:06:25 145.827
ESTCUBE 1 26 Jun 01:11:09 01:14:34 21° 245° (WSW) 01:17:56 437.505/2401.250
VELOX 1 26 Jun 01:13:48 01:18:18 71° 254° (WSW) 01:22:43 145.980
Oscar 19 26 Jun 01:30:39 01:35:44 57° 280° (W) 01:40:55 437.125/150
Tancredo 1 26 Jun 01:32:55 01:35:42 30° 154° (SSE) 01:38:28 437.200
DX 1 26 Jun 01:34:49 01:39:13 63° 79° (E) 01:43:33 434.975-435.025
SPROUT 26 Jun 01:38:40 01:42:33 33° 250° (WSW) 01:46:22 437.525
AO-7 26 Jun 01:39:12 01:46:13 31° 123° (ESE) 01:53:15 .
ISS 26 Jun 01:46:34 01:49:27 26° 157° (SSE) 01:52:17 437.550
UKube-1 26 Jun 01:52:49 01:57:13 67° 77° (ENE) 02:01:31 .
50 SAT 26 Jun 01:55:42 01:58:57 36° 252° (WSW) 02:02:09 437.505
SO-50 26 Jun 01:59:25 02:03:59 53° 62° (ENE) 02:08:40 436.795
ITAMSAT 1 26 Jun 02:08:03 02:12:27 28° 115° (ESE) 02:16:51 435.822/435.867
Gurwin Techsat 1B 26 Jun 02:21:22 02:26:08 32° 276° (W) 02:30:57 435.225
MOZHAYETS 4 26 Jun 02:45:36 02:48:22 15° 89° (E) 02:51:06
ITUPSAT 1 26 Jun 03:00:08 03:04:30 32° 83° (E) 03:08:48 437.325
Tancredo 1 26 Jun 03:08:32 03:11:18 31° 317° (NW) 03:14:02 437.200
BEESAT 26 Jun 03:10:14 03:14:50 41° 81° (E) 03:19:22 436.000
DX 1 26 Jun 03:12:44 03:14:51 13° 242° (WSW) 03:16:56 434.975-435.025
ISS 26 Jun 03:22:50 03:26:06 52° 320° (NW) 03:29:19 437.550
AO-7 26 Jun 03:30:09 03:38:25 64° 284° (WNW) 03:46:46 .
UKube-1 26 Jun 03:30:48 03:32:38 12° 241° (WSW) 03:34:27 .
DOVE 4 26 Jun 03:37:59 03:38:55 10° 121° (ESE) 03:39:50 437.250
SO-50 26 Jun 03:41:00 03:44:46 23° 223° (SW) 03:48:36 436.795
ITAMSAT 1 26 Jun 03:46:53 03:51:43 38° 278° (W) 03:56:36 435.822/435.867
MOZHAYETS 4 26 Jun 04:21:15 04:25:50 54° 253° (WSW) 04:30:23
KKS-1 26 Jun 04:21:30 04:24:38 18° 87° (E) 04:27:43 437.445
ITUPSAT 1 26 Jun 04:38:05 04:42:11 28° 247° (WSW) 04:46:16 437.325
BEESAT 26 Jun 04:48:37 04:52:18 22° 245° (WSW) 04:55:59 436.000
CUTE-I 26 Jun 04:48:52 04:53:00 23° 117° (ESE) 04:57:08 437.470
STARS 26 Jun 04:52:21 04:55:08 16° 88° (E) 04:57:53 437.465
NUDT-PHONESAT 26 Jun 04:58:15 05:00:31 16° 114° (ESE) 05:02:48 437.300
CUBESAT XI-V 26 Jun 05:01:12 05:06:02 76° 77° (ENE) 05:10:46 437.345
DOVE 4 26 Jun 05:10:23 05:15:42 75° 105° (ESE) 05:20:57 437.250
XW-2F 26 Jun 05:11:44 05:15:00 28° 110° (ESE) 05:18:18 145.980 - 146.000
XW-2D 26 Jun 05:15:20 05:18:45 33° 109° (ESE) 05:22:15 145.860 - 145.880
LilacSat-2 26 Jun 05:23:03 05:26:39 43° 107° (ESE) 05:30:21 437.200
XW-2B 26 Jun 05:24:09 05:27:43 41° 107° (ESE) 05:31:22 145.730 - 145.750
AO-7 26 Jun 05:31:21 05:32:42 10° 266° (W) 05:34:04 .
XW-2C 26 Jun 05:39:24 05:43:09 67° 104° (ESE) 05:46:59 145.795 - 145.815
HO-68 26 Jun 05:51:37 05:57:50 33° 119° (ESE) 06:04:04 435.675
KAITUO 1B 26 Jun 05:54:12 05:57:55 78° 101° (E) 06:01:45 145.475/437.950
SEEDS 26 Jun 05:54:44 05:55:12 10° 119° (ESE) 05:55:39 437.485
KKS-1 26 Jun 05:57:06 06:01:22 42° 251° (WSW) 06:05:33 437.445
CUTE 1.7 + AOD 2 26 Jun 06:08:29 06:11:50 23° 113° (ESE) 06:15:13 437.475
CUBEBUG 2 26 Jun 06:18:40 06:21:08 15° 115° (ESE) 06:23:34 437.445
STARS 26 Jun 06:27:27 06:31:42 46° 251° (WSW) 06:35:53 437.465
CUTE-I 26 Jun 06:27:28 06:32:40 49° 280° (W) 06:37:57 437.470
NUDT-PHONESAT 26 Jun 06:30:41 06:34:06 35° 278° (W) 06:37:35 437.300
CUBESAT XI-V 26 Jun 06:40:38 06:42:43 13° 241° (WSW) 06:44:47 437.345
AAUSAT CUBESAT 2 26 Jun 06:43:54 06:46:36 17° 115° (ESE) 06:49:20 437.432
XW-2F 26 Jun 06:46:23 06:49:08 19° 273° (W) 06:51:56 145.980 - 146.000
ZACube-1 26 Jun 06:50:03 06:50:36 10° 118° (ESE) 06:51:10 437.345
XW-2D 26 Jun 06:50:38 06:53:03 16° 272° (W) 06:55:30 145.860 - 145.880
DOVE 4 26 Jun 06:51:10 06:53:50 14° 269° (W) 06:56:29 437.250
UWE-3 26 Jun 06:51:59 06:55:04 20° 113° (ESE) 06:58:09 435.000/436.395/437.385
LilacSat-2 26 Jun 06:59:24 07:01:10 13° 271° (W) 07:02:57 437.200
XW-2B 26 Jun 07:00:15 07:02:07 13° 271° (W) 07:04:01 145.730 - 145.750
STRAND 1 26 Jun 07:07:49 07:12:08 26° 85° (E) 07:16:24 437.568
XW-2A 26 Jun 07:23:20 07:26:41 61° 281° (W) 07:30:04 145.665 - 145.685
SEEDS 26 Jun 07:25:57 07:30:11 79° 282° (WNW) 07:34:31 437.485
AO-85 26 Jun 07:34:33 07:38:53 28° 69° (ENE) 07:43:24 145.980
HO-68 26 Jun 07:38:20 07:45:14 50° 280° (W) 07:52:14 435.675
BEESAT 3 26 Jun 07:43:28 07:45:09 13° 70° (ENE) 07:46:51 437.485
CUTE 1.7 + AOD 2 26 Jun 07:43:40 07:47:28 31° 276° (W) 07:51:21 437.475
AO-73 26 Jun 07:47:25 07:51:19 39° 108° (ESE) 07:55:14 145.935
RS-15 26 Jun 07:47:27 07:57:04 36° 73° (ENE) 08:06:32 29.354- 29.394
CUBEBUG 2 26 Jun 07:53:07 07:57:21 50° 279° (W) 08:01:32 437.445
PCSat 26 Jun 08:00:48 08:05:20 26° 132° (SE) 08:09:49 145.827
DELFI C3 26 Jun 08:12:08 08:14:31 15° 115° (ESE) 08:16:54 145.870
Oscar 11 26 Jun 08:14:19 08:18:36 63° 106° (ESE) 08:22:57 .
AAUSAT CUBESAT 2 26 Jun 08:17:41 08:21:41 43° 278° (W) 08:25:46 437.432
ZACube-1 26 Jun 08:22:04 08:26:16 74° 283° (WNW) 08:30:30 437.345
UWE-3 26 Jun 08:27:22 08:31:18 35° 277° (W) 08:35:12 435.000/436.395/437.385
O/OREOS (USA 219) 26 Jun 08:36:58 08:40:35 24° 78° (ENE) 08:44:14 437.305
YUBILEINY 26 Jun 08:37:41 08:44:34 27° 99° (E) 08:51:28 435.215
BEESAT 2 26 Jun 08:40:53 08:43:43 19° 68° (ENE) 08:46:33 435.950
STRAND 1 26 Jun 08:46:37 08:51:22 38° 249° (WSW) 08:56:04 437.568
FO-29 26 Jun 09:06:25 09:09:13 14° 90° (E) 09:12:01 435.910
EO-88 26 Jun 09:10:56 09:14:25 44° 107° (ESE) 09:17:59 145.990 - 145.960
AO-85 26 Jun 09:14:12 09:19:10 44° 230° (SW) 09:24:19 145.980
UNISAT 6 26 Jun 09:15:37 09:17:10 12° 90° (E) 09:18:43 437.425
NO-84 26 Jun 09:18:06 09:21:19 40° 47° (NE) 09:24:20 435.350 FM
BEESAT 3 26 Jun 09:18:32 09:22:17 52° 234° (SW) 09:26:02 437.485
AO-73 26 Jun 09:24:58 09:27:43 17° 272° (W) 09:30:29 145.935
LO-87 26 Jun 09:36:13 09:37:37 12° 115° (ESE) 09:39:01 145.935 - 145.965
PCSat 26 Jun 09:43:44 09:49:00 51° 293° (WNW) 09:54:14 145.827
M-CUBED/EXP-1 PRIME 26 Jun 09:44:08 09:48:04 34° 79° (ENE) 09:51:39 437.505
DELFI C3 26 Jun 09:45:01 09:48:53 44° 279° (W) 09:52:49 145.870
Oscar 11 26 Jun 09:53:40 09:55:09 11° 269° (W) 09:56:38 .
RS-15 26 Jun 09:57:49 10:08:43 65° 231° (SW) 10:19:36 29.354- 29.394
PRISM 26 Jun 10:00:57 10:04:51 36° 82° (E) 10:08:41 437.425
TIGRISAT 26 Jun 10:07:54 10:12:02 40° 82° (E) 10:16:12 435.000
O/OREOS (USA 219) 26 Jun 10:15:37 10:19:47 34° 241° (WSW) 10:24:01 437.305
BEESAT 2 26 Jun 10:17:35 10:21:13 36° 231° (SW) 10:24:51 435.950
SO-50 26 Jun 10:30:43 10:35:23 48° 128° (SE) 10:39:58 436.795
YUBILEINY 26 Jun 10:31:56 10:40:37 65° 259° (WSW) 10:49:22 435.215
ESTCUBE 1 26 Jun 10:32:55 10:37:06 37° 110° (ESE) 10:41:22 437.505/2401.250
VELOX 1 26 Jun 10:37:57 10:39:09 11° 120° (ESE) 10:40:19 145.980
EO-88 26 Jun 10:46:58 10:48:20 12° 271° (W) 10:49:43 145.990 - 145.960
FO-29 26 Jun 10:49:38 10:54:52 63° 253° (WSW) 11:00:04 435.910
UNISAT 6 26 Jun 10:49:55 10:54:15 63° 254° (WSW) 10:58:38 437.425
NO-84 26 Jun 10:56:16 10:58:51 22° 211° (SSW) 11:01:21 435.350 FM
SPROUT 26 Jun 10:56:59 10:59:50 17° 115° (ESE) 11:02:40 437.525
AO-85 26 Jun 10:59:45 11:01:05 11° 209° (SSW) 11:02:25 145.980
LO-87 26 Jun 11:07:04 11:10:36 47° 279° (W) 11:14:11 145.935 - 145.965
M-CUBED/EXP-1 PRIME 26 Jun 11:18:57 11:22:13 21° 240° (WSW) 11:25:17 437.505
PRISM 26 Jun 11:36:51 11:39:51 19° 245° (WSW) 11:42:48 437.425
POLYITAN 1 26 Jun 11:38:10 11:41:44 25° 85° (E) 11:45:17 437.675
TIGRISAT 26 Jun 11:45:22 11:48:26 19° 246° (WSW) 11:51:30 435.000
QB50P2 26 Jun 11:48:43 11:52:41 36° 83° (E) 11:56:37 145.880/145.840
BUGSAT 1 26 Jun 12:04:14 12:04:59 10° 90° (E) 12:05:44 437.445
AIST 2D 26 Jun 12:05:21 12:08:55 58° 255° (WSW) 12:12:27 435.315
VELOX 1 26 Jun 12:10:23 12:14:53 82° 283° (WNW) 12:19:27 145.980
ESTCUBE 1 26 Jun 12:10:33 12:14:00 21° 273° (W) 12:17:31 437.505/2401.250
SO-50 26 Jun 12:11:57 12:15:31 21° 291° (WNW) 12:19:03 436.795
EO-79 26 Jun 12:13:01 12:17:16 64° 78° (ENE) 12:21:28 145.935-145.965
RS-15 26 Jun 12:15:14 12:23:46 25° 202° (SSW) 12:32:24 29.354- 29.394
50 SAT 26 Jun 12:26:39 12:30:08 73° 104° (ESE) 12:33:40 437.505
DUCHIFAT 1 26 Jun 12:26:54 12:31:10 74° 77° (ENE) 12:35:22 145.980
DX 1 26 Jun 12:29:50 12:34:08 54° 107° (ESE) 12:38:31 434.975-435.025
SPROUT 26 Jun 12:31:15 12:35:22 44° 279° (W) 12:39:32 437.525
NANOSAT C BR1 26 Jun 12:35:29 12:39:46 79° 257° (WSW) 12:43:59 145.865
YUBILEINY 26 Jun 12:35:52 12:39:24 13° 236° (SW) 12:42:58 435.215
UKube-1 26 Jun 12:46:46 12:51:03 55° 107° (ESE) 12:55:22 .
Gurwin Techsat 1B 26 Jun 12:59:33 13:01:39 12° 91° (E) 13:03:44 435.225
POLYITAN 1 26 Jun 13:13:50 13:17:27 27° 249° (WSW) 13:21:03 437.675
